Back to catalog

THORAD AGENA D DEB

AlivePO
NORAD 5203·DEBRIS·🇺🇸 United States

Launched Apr 8, 1970 from Vandenberg Space Force Base

Loading…

Next Passes (next 24 hours)

TLE

FreshSource: Space-Track

Epoch: Sep 14, 2026, 01:07 UTC

1 05203U 70025KE  26257.04703434  .00000356  00000-0  90353-3 0  9998
2 05203  99.8258 284.2197 0219719 231.5558 154.5300 13.17710210694712

Track THORAD AGENA D DEB in real time with AllMySat

Download on the App Store